Change the Weather History Date:

Friday, October 3, 2014

  Actual Average Record
Temperature  
Mean Temperature 41 °F 53 °F  
Max Temperature 47 °F 66 °F 89 °F (1897)
Min Temperature 35 °F 41 °F 25 °F (1987)
Degree Days  
Heating Degree Days 24 12  
Month to date heating degree days 32 35  
Since 1 July heating degree days 180 239  
Cooling Degree Days 0 0  
Month to date cooling degree days 0 0  
Year to date cooling degree days 610 685  
Moisture  
Dew Point 27 °F    
Average Humidity 54    
Maximum Humidity 71    
Minimum Humidity 37    
Precipitation  
Precipitation 0.00 in 0.09 in 1.10 in (1903)
Month to date precipitation 0.22 0.27  
Year to date precipitation 26.93 22.43  
Snow  
Snow 0.00 in 0.00 in T in (1950)
Month to date snowfall 0.0 0.0  
Since 1 July snowfall T T  
Since 1 September snowfall 0.0 T  
Snow Depth 0.00 in    
Sea Level Pressure  
Sea Level Pressure 30.04 in    
Wind  
Wind Speed 22 mph (NW)    
Max Wind Speed 36 mph    
Max Gust Speed 48 mph    
Visibility 10 miles    
Events      
T = Trace of Precipitation, MM = Missing Value Source: NWS Daily Summary

Daily Weather History Graph

Daily Weather History Graph

Search for Another Location

Airport or City:

Trip Planner

Search our weather history database for the weather conditions in past years. The results will help you decide how hot, cold, wet, or windy it might be!

Date:

Astronomy

Oct. 03, 2014 Rise Set
Actual Time 7:26 AM CDT 7:04 PM CDT
Civil Twilight 6:58 AM CDT 7:32 PM CDT
Nautical Twilight 6:25 AM CDT 8:06 PM CDT
Astronomical Twilight 5:51 AM CDT 8:39 PM CDT
Moon 4:06 PM CDT (10/3) 1:39 AM CDT (10/3)
Length of Visible Light 12h 34m
Length of Day
11h 37m
Waxing Gibbous, 71% of the Moon is Illuminated
Oct 3
Waxing Gibbous
Oct 8
Full
Oct 15
Last Quarter
Oct 23
New
Oct 30
First Quarter

Hourly Weather History & Observations

Time (CDT) Temp. Windchill Dew Point Humidity Pressure Visibility Wind Dir Wind Speed Gust Speed Precip Events Conditions
12:56 AM 48.0 °F - 37.0 °F 66% 29.95 in 10.0 mi NNW 26.5 mph 43.7 mph N/A   Clear
1:56 AM 46.0 °F 39.3 °F 37.9 °F 73% 29.96 in 10.0 mi NNW 16.1 mph 24.2 mph N/A   Partly Cloudy
2:09 AM 46.9 °F - 37.9 °F 71% 29.97 in 10.0 mi NW 20.7 mph - N/A   Mostly Cloudy
2:34 AM 46.0 °F 38.3 °F 34.0 °F 63% 29.97 in 10.0 mi NW 20.7 mph 31.1 mph N/A   Overcast
2:56 AM 45.0 °F 36.2 °F 32.0 °F 60% 30.00 in 10.0 mi NW 24.2 mph 32.2 mph N/A   Mostly Cloudy
3:56 AM 43.0 °F 35.1 °F 30.9 °F 62% 30.00 in 10.0 mi NW 17.3 mph 32.2 mph N/A   Clear
4:56 AM 42.1 °F 33.6 °F 30.9 °F 65% 30.02 in 10.0 mi NW 18.4 mph 34.5 mph N/A   Scattered Clouds
5:56 AM 42.1 °F 32.8 °F 30.9 °F 65% 30.02 in 10.0 mi NW 21.9 mph 35.7 mph N/A   Mostly Cloudy
6:56 AM 42.1 °F 32.6 °F 30.9 °F 65% 30.03 in 10.0 mi NW 23.0 mph 44.9 mph N/A   Overcast
7:56 AM 42.8 °F 33.1 °F 28.4 °F 57% 30.02 in 10.0 mi NW 25.3 mph 35.7 mph N/A   Overcast
8:56 AM 41.0 °F 30.7 °F 30.0 °F 65% 30.07 in 10.0 mi NW 25.3 mph 35.7 mph N/A   Mostly Cloudy
9:56 AM 41.0 °F 29.5 °F 24.1 °F 51% 30.09 in 10.0 mi NW 32.2 mph 42.6 mph N/A   Overcast
10:56 AM 42.1 °F 32.6 °F 27.0 °F 55% 30.09 in 10.0 mi NW 23.0 mph 36.8 mph N/A   Overcast
11:56 AM 43.0 °F 33.1 °F 23.0 °F 45% 30.09 in 10.0 mi NW 26.5 mph 43.7 mph N/A   Overcast
12:56 PM 43.0 °F 33.5 °F 24.1 °F 47% 30.08 in 10.0 mi NW 24.2 mph 39.1 mph N/A   Overcast
1:56 PM 44.1 °F 34.6 °F 25.0 °F 47% 30.07 in 10.0 mi NW 26.5 mph 39.1 mph N/A   Overcast
2:56 PM 44.1 °F 34.8 °F 23.0 °F 43% 30.06 in 10.0 mi NW 25.3 mph 36.8 mph N/A   Overcast
3:56 PM 45.0 °F 36.0 °F 21.9 °F 40% 30.06 in 10.0 mi NW 25.3 mph 35.7 mph N/A   Overcast
4:56 PM 46.0 °F 36.9 °F 21.0 °F 37% 30.05 in 10.0 mi NW 28.8 mph 43.7 mph N/A   Mostly Cloudy
5:56 PM 43.0 °F 33.3 °F 21.0 °F 42% 30.07 in 10.0 mi NW 25.3 mph 41.4 mph N/A   Mostly Cloudy
6:56 PM 41.0 °F 30.9 °F 19.0 °F 41% 30.09 in 10.0 mi NNW 24.2 mph 31.1 mph N/A   Mostly Cloudy
7:56 PM 39.0 °F 29.9 °F 18.0 °F 43% 30.09 in 10.0 mi NW 17.3 mph - N/A   Mostly Cloudy
8:56 PM 39.0 °F 31.4 °F 19.9 °F 46% 30.09 in 10.0 mi WNW 12.7 mph 19.6 mph N/A   Overcast
9:56 PM 39.0 °F 30.6 °F 21.0 °F 49% 30.07 in 10.0 mi NW 15.0 mph - N/A   Overcast
10:56 PM 39.9 °F 32.1 °F 23.0 °F 51% 30.06 in 10.0 mi NW 13.8 mph 23.0 mph N/A   Overcast
11:56 PM 37.9 °F 29.2 °F 23.0 °F 55% 30.05 in 10.0 mi NW 15.0 mph - N/A   Clear